This is the latest recevied weather packets stored in our database for station/object OK0EK-12. If no packets are shown the sender has not sent any weather packets the latest 10 day(s).
| Time | Temp. | Humidity | Pressure | Rain* | Wind** | Luminosity | Snow |
|---|---|---|---|---|---|---|---|
| 1777284315 | 25° C | 19% | 1102.1 hPa | - | - | - | - |
| 1777283716 | 23.33° C | 18% | 1101.9 hPa | - | - | - | - |
| 1777283117 | 22.22° C | 20% | 1102.2 hPa | - | - | - | - |
| 1777282518 | 22.78° C | 18% | 1102.4 hPa | - | - | - | - |
| 1777281919 | 23.89° C | 19% | 1102.5 hPa | - | - | - | - |
| 1777281327 | 23.33° C | 19% | 1102.6 hPa | - | - | - | - |
| 1777280721 | 22.22° C | 20% | 1102.7 hPa | - | - | - | - |
| 1777280121 | 19.44° C | 26% | 1102.8 hPa | - | - | - | - |
| 1777279521 | 18.89° C | 23% | 1102.9 hPa | - | - | - | - |
| 1777278922 | 17.78° C | 23% | 1103.1 hPa | - | - | - | - |
| 1777278323 | 18.33° C | 24% | 1103 hPa | - | - | - | - |
| 1777277724 | 17.22° C | 24% | 1103.1 hPa | - | - | - | - |
| 1777277125 | 16.11° C | 25% | 1103.1 hPa | - | - | - | - |
| 1777276526 | 16.67° C | 25% | 1103.2 hPa | - | - | - | - |
| 1777275927 | 17.22° C | 24% | 1103.2 hPa | - | - | - | - |
| 1777275328 | 19.44° C | 24% | 1103.2 hPa | - | - | - | - |
| 1777274130 | 16.67° C | 25% | 1103.3 hPa | - | - | - | - |
| 1777272931 | 16.67° C | 29% | 1103.3 hPa | - | - | - | - |
| 1777272332 | 15.56° C | 33% | 1103.4 hPa | - | - | - | - |
| 1777271741 | 15° C | 33% | 1103.5 hPa | - | - | - | - |
| 1777271134 | 13.89° C | 37% | 1103.6 hPa | - | - | - | - |
| 1777270535 | 12.22° C | 38% | 1103.7 hPa | - | - | - | - |
| 1777269935 | 12.22° C | 37% | 1103.7 hPa | - | - | - | - |
| 1777269336 | 10.56° C | 40% | 1103.7 hPa | - | - | - | - |
| 1777268737 | 9.44° C | 43% | 1103.6 hPa | - | - | - | - |
* Rain since midnight (hover to see other rain measurements)
** Current wind speed in m/s (hover to see current wind gust speed)